Location: Newark
(42.9260°N, 89.3850°W)
Time: 05:34:17
(UTC+00:00)

STARLINK 1043 - Pass Details

Date: 12 December 2019
Orbit: 549 x 551 km, 53.0° (Epoch: 23 January)

Event Time Altitude Azimuth Distance (km) Brightness Sun altitude
Exits shadow 12:18:00 13° 267° (W) 1,705 5.6 -10.8°
Maximum altitude 12:20:11 18° 232° (SW) 1,442 5.5 -10.5°
Drops below altitude 10° 12:23:01 10° 190° (S) 1,863 6.5 -10.0°
Sets 12:25:51 0° 170° (S) 2,756 7.7 -9.5°
